TimeCST,TemperatureF,Dew PointF,Humidity,Sea Level PressureIn,VisibilityMPH,Wind Direction,Wind SpeedMPH,Gust SpeedMPH,PrecipitationIn,Events,Conditions,WindDirDegrees,DateUTC
12:53 AM,42.1,39.9,92,30.08,10.0,NNW,6.9,-,N/A,,Clear,340,2013-02-14 06:53:00
1:53 AM,39.9,39.0,97,30.08,10.0,NW,5.8,-,N/A,,Clear,310,2013-02-14 07:53:00
2:53 AM,41.0,39.0,93,30.08,10.0,NW,8.1,-,N/A,,Clear,320,2013-02-14 08:53:00
3:53 AM,41.0,39.9,96,30.08,10.0,NNW,8.1,-,N/A,,Clear,330,2013-02-14 09:53:00
4:53 AM,42.1,39.9,92,30.09,10.0,NNW,6.9,-,N/A,,Clear,340,2013-02-14 10:53:00
5:53 AM,42.1,39.9,92,30.11,10.0,NNW,3.5,-,N/A,,Clear,340,2013-02-14 11:53:00
6:53 AM,41.0,39.0,93,30.13,8.0,NNW,5.8,-,N/A,,Clear,340,2013-02-14 12:53:00
7:53 AM,43.0,41.0,93,30.18,7.0,NW,4.6,-,N/A,,Partly Cloudy,310,2013-02-14 13:53:00
8:53 AM,45.0,39.9,82,30.17,10.0,North,8.1,-,N/A,,Partly Cloudy,10,2013-02-14 14:53:00
9:53 AM,46.0,39.9,79,30.19,10.0,NNE,5.8,-,N/A,,Clear,30,2013-02-14 15:53:00
10:53 AM,46.9,39.0,74,30.17,10.0,NE,6.9,-,N/A,,Clear,50,2013-02-14 16:53:00
11:53 AM,50.0,39.9,68,30.15,10.0,NE,5.8,-,N/A,,Clear,50,2013-02-14 17:53:00
12:53 PM,52.0,39.0,61,30.12,10.0,NE,8.1,-,N/A,,Partly Cloudy,50,2013-02-14 18:53:00
1:53 PM,55.0,39.9,57,30.09,10.0,NE,8.1,-,N/A,,Clear,40,2013-02-14 19:53:00
2:53 PM,55.0,39.9,57,30.08,10.0,East,8.1,-,N/A,,Clear,90,2013-02-14 20:53:00
3:53 PM,55.9,39.9,55,30.07,10.0,East,5.8,-,N/A,,Partly Cloudy,80,2013-02-14 21:53:00
4:53 PM,55.9,39.9,55,30.07,10.0,NE,5.8,-,N/A,,Clear,50,2013-02-14 22:53:00
5:20 PM,55.4,39.2,54,30.07,10.0,North,6.9,-,N/A,,Clear,10,2013-02-14 23:20:00
5:53 PM,54.0,39.9,59,30.08,10.0,NNE,5.8,-,N/A,,Clear,20,2013-02-14 23:53:00
6:53 PM,48.0,39.9,74,30.10,10.0,North,4.6,-,N/A,,Clear,350,2013-02-15 00:53:00
7:12 PM,46.4,41.0,81,30.10,10.0,Calm,Calm,-,N/A,,Clear,0,2013-02-15 01:12:00
7:53 PM,44.1,42.1,93,30.12,10.0,Calm,Calm,-,N/A,,Clear,0,2013-02-15 01:53:00
8:53 PM,42.1,41.0,96,30.12,10.0,Calm,Calm,-,N/A,,Clear,0,2013-02-15 02:53:00
9:53 PM,41.0,39.9,96,30.12,5.0,Calm,Calm,-,N/A,,Clear,0,2013-02-15 03:53:00
10:53 PM,41.0,39.9,96,30.12,5.0,Calm,Calm,-,N/A,,Clear,0,2013-02-15 04:53:00
11:53 PM,39.9,39.9,100,30.13,5.0,Calm,Calm,-,N/A,,Clear,0,2013-02-15 05:53:00